Time,TemperatureF,DewpointF,PressureIn,WindDirection,WindDirectionDegrees,WindSpeedMPH,WindSpeedGustMPH,Humidity,HourlyPrecipIn,Conditions,Clouds,dailyrainin,SoftwareType,DateUTC
2013-05-20 00:02:00,77.0,67.0,29.69,SSE,157,9.0,15.0,71,-99.99,,,-99.99,,2013-05-20 05:02:00,
2013-05-20 00:12:00,77.0,67.0,29.69,SSE,157,6.0,9.0,71,-99.99,,,-99.99,,2013-05-20 05:12:00,
2013-05-20 00:21:00,76.0,67.0,29.69,SSE,157,6.0,10.0,72,-99.99,,,-99.99,,2013-05-20 05:21:00,
2013-05-20 00:32:00,76.0,67.0,29.70,South,180,6.0,12.0,72,-99.99,,,-99.99,,2013-05-20 05:32:00,
2013-05-20 00:42:00,76.0,67.0,29.72,SSW,202,7.0,13.0,73,-99.99,,,-99.99,,2013-05-20 05:42:00,
2013-05-20 00:51:00,76.0,67.0,29.75,SW,225,9.0,14.0,73,-99.99,,,-99.99,,2013-05-20 05:51:00,
2013-05-20 01:01:00,77.0,67.0,29.78,WNW,292,11.0,16.0,73,-99.99,,,-99.99,,2013-05-20 06:01:00,
2013-05-20 01:11:00,71.0,59.0,29.78,WNW,292,20.0,30.0,67,-99.99,,,-99.99,,2013-05-20 06:11:00,
2013-05-20 01:21:00,68.0,59.0,29.79,NW,315,17.0,25.0,73,-99.99,,,-99.99,,2013-05-20 06:21:00,
2013-05-20 01:32:00,66.0,59.0,29.78,NW,315,13.0,18.0,77,-99.99,,,-99.99,,2013-05-20 06:32:00,
2013-05-20 01:41:00,66.0,60.0,29.77,WNW,292,9.0,12.0,82,-99.99,,,-99.99,,2013-05-20 06:41:00,
2013-05-20 01:52:00,65.0,60.0,29.75,NW,315,7.0,9.0,84,-99.99,,,-99.99,,2013-05-20 06:52:00,
2013-05-20 02:01:00,65.0,60.0,29.76,NW,315,7.0,10.0,84,-99.99,,,-99.99,,2013-05-20 07:01:00,
2013-05-20 02:12:00,63.0,60.0,29.78,WNW,292,9.0,13.0,89,-99.99,,,-99.99,,2013-05-20 07:12:00,
2013-05-20 02:21:00,63.0,60.0,29.77,NW,315,14.0,23.0,92,-99.99,,,-99.99,,2013-05-20 07:21:00,
2013-05-20 02:32:00,62.0,60.0,29.79,WNW,292,11.0,17.0,94,-99.99,,,-99.99,,2013-05-20 07:32:00,
2013-05-20 02:42:00,61.0,60.0,29.79,NW,315,9.0,13.0,96,-99.99,,,-99.99,,2013-05-20 07:42:00,
2013-05-20 02:52:00,61.0,60.0,29.83,WSW,247,8.0,14.0,96,-99.99,,,-99.99,,2013-05-20 07:52:00,
2013-05-20 03:01:00,61.0,60.0,29.80,West,270,4.0,7.0,97,-99.99,,,-99.99,,2013-05-20 08:01:00,
2013-05-20 03:11:00,61.0,60.0,29.80,West,270,4.0,7.0,97,-99.99,,,-99.99,,2013-05-20 08:11:00,
2013-05-20 03:21:00,61.0,60.0,29.81,WSW,247,3.0,6.0,97,-99.99,,,-99.99,,2013-05-20 08:21:00,
2013-05-20 03:31:00,61.0,60.0,29.80,WSW,247,0.0,-999.0,97,-99.99,,,-99.99,,2013-05-20 08:31:00,
2013-05-20 03:41:00,61.0,60.0,29.79,WSW,247,2.0,3.0,97,-99.99,,,-99.99,,2013-05-20 08:41:00,
2013-05-20 03:51:00,61.0,60.0,29.81,SSW,202,2.0,4.0,97,-99.99,,,-99.99,,2013-05-20 08:51:00,
2013-05-20 04:01:00,61.0,60.0,29.77,SE,135,5.0,7.0,98,-99.99,,,-99.99,,2013-05-20 09:01:00,
2013-05-20 04:12:00,61.0,60.0,29.78,SSE,157,5.0,7.0,98,-99.99,,,-99.99,,2013-05-20 09:12:00,
2013-05-20 04:21:00,61.0,60.0,29.76,ESE,112,6.0,8.0,98,-99.99,,,-99.99,,2013-05-20 09:21:00,
2013-05-20 04:32:00,61.0,60.0,29.73,SE,135,8.0,13.0,99,-99.99,,,-99.99,,2013-05-20 09:32:00,
2013-05-20 04:43:00,61.0,60.0,29.76,SSE,157,9.0,13.0,99,-99.99,,,-99.99,,2013-05-20 09:43:00,
2013-05-20 04:52:00,61.0,60.0,29.75,ESE,112,9.0,13.0,99,-99.99,,,-99.99,,2013-05-20 09:52:00,
2013-05-20 05:03:00,61.0,60.0,29.76,SE,135,8.0,13.0,99,-99.99,,,-99.99,,2013-05-20 10:03:00,
2013-05-20 05:12:00,61.0,60.0,29.75,SSE,157,9.0,14.0,99,-99.99,,,-99.99,,2013-05-20 10:12:00,
2013-05-20 05:22:00,61.0,60.0,29.77,South,180,9.0,12.0,99,-99.99,,,-99.99,,2013-05-20 10:22:00,
2013-05-20 05:32:00,61.0,60.0,29.79,SSW,202,7.0,14.0,99,-99.99,,,-99.99,,2013-05-20 10:32:00,
2013-05-20 05:42:00,61.0,60.0,29.81,SSW,202,8.0,14.0,99,-99.99,,,-99.99,,2013-05-20 10:42:00,
2013-05-20 05:52:00,61.0,61.0,29.83,SSW,202,7.0,12.0,99,-99.99,,,-99.99,,2013-05-20 10:52:00,
2013-05-20 06:02:00,61.0,61.0,29.83,SW,225,8.0,14.0,98,-99.99,,,-99.99,,2013-05-20 11:02:00,
2013-05-20 06:12:00,61.0,61.0,29.85,SSW,202,9.0,13.0,98,-99.99,,,-99.99,,2013-05-20 11:12:00,
2013-05-20 06:21:00,61.0,61.0,29.86,South,180,10.0,17.0,98,-99.99,,,-99.99,,2013-05-20 11:21:00,
2013-05-20 06:32:00,61.0,61.0,29.84,South,180,8.0,15.0,99,-99.99,,,-99.99,,2013-05-20 11:32:00,
2013-05-20 06:41:00,61.0,60.0,29.83,SE,135,7.0,12.0,98,-99.99,,,-99.99,,2013-05-20 11:41:00,
2013-05-20 06:51:00,61.0,61.0,29.82,SSW,202,5.0,9.0,98,-99.99,,,-99.99,,2013-05-20 11:51:00,
2013-05-20 07:01:00,61.0,61.0,29.81,South,180,5.0,8.0,98,-99.99,,,-99.99,,2013-05-20 12:01:00,
2013-05-20 07:11:00,61.0,61.0,29.79,South,180,5.0,7.0,98,-99.99,,,-99.99,,2013-05-20 12:11:00,
2013-05-20 07:21:00,61.0,61.0,29.77,SE,135,9.0,13.0,98,-99.99,,,-99.99,,2013-05-20 12:21:00,
2013-05-20 07:32:00,61.0,61.0,29.79,South,180,8.0,12.0,98,-99.99,,,-99.99,,2013-05-20 12:32:00,
2013-05-20 07:41:00,61.0,61.0,29.78,South,180,9.0,14.0,99,-99.99,,,-99.99,,2013-05-20 12:41:00,
2013-05-20 07:51:00,61.0,61.0,29.80,SSE,157,10.0,16.0,98,-99.99,,,-99.99,,2013-05-20 12:51:00,
2013-05-20 08:01:00,62.0,61.0,29.79,SSE,157,9.0,18.0,97,-99.99,,,-99.99,,2013-05-20 13:01:00,
2013-05-20 08:11:00,62.0,61.0,29.81,SSW,202,7.0,12.0,96,-99.99,,,-99.99,,2013-05-20 13:11:00,
2013-05-20 08:22:00,63.0,61.0,29.80,South,180,8.0,12.0,96,-99.99,,,-99.99,,2013-05-20 13:22:00,
2013-05-20 08:31:00,64.0,62.0,29.80,South,180,8.0,13.0,94,-99.99,,,-99.99,,2013-05-20 13:31:00,
2013-05-20 08:41:00,65.0,63.0,29.81,South,180,8.0,16.0,93,-99.99,,,-99.99,,2013-05-20 13:41:00,
2013-05-20 08:52:00,66.0,63.0,29.80,South,180,10.0,16.0,90,-99.99,,,-99.99,,2013-05-20 13:52:00,
2013-05-20 09:01:00,65.0,62.0,29.81,SSE,157,10.0,18.0,89,-99.99,,,-99.99,,2013-05-20 14:01:00,
2013-05-20 09:11:00,66.0,62.0,29.81,South,180,10.0,16.0,87,-99.99,,,-99.99,,2013-05-20 14:11:00,
2013-05-20 09:22:00,67.0,63.0,29.80,South,180,9.0,18.0,85,-99.99,,,-99.99,,2013-05-20 14:22:00,
2013-05-20 09:31:00,67.0,63.0,29.81,South,180,11.0,19.0,86,-99.99,,,-99.99,,2013-05-20 14:31:00,
2013-05-20 09:41:00,68.0,63.0,29.78,SE,135,9.0,17.0,84,-99.99,,,-99.99,,2013-05-20 14:41:00,
2013-05-20 09:52:00,69.0,63.0,29.77,South,180,11.0,17.0,81,-99.99,,,-99.99,,2013-05-20 14:52:00,
2013-05-20 10:01:00,70.0,63.0,29.77,SE,135,12.0,18.0,81,-99.99,,,-99.99,,2013-05-20 15:01:00,
2013-05-20 10:11:00,70.0,63.0,29.77,SE,135,13.0,19.0,79,-99.99,,,-99.99,,2013-05-20 15:11:00,
2013-05-20 10:21:00,71.0,64.0,29.77,SSE,157,12.0,17.0,77,-99.99,,,-99.99,,2013-05-20 15:21:00,
2013-05-20 10:33:00,71.0,63.0,29.77,SSW,202,11.0,16.0,73,-99.99,,,-99.99,,2013-05-20 15:33:00,
2013-05-20 10:42:00,72.0,63.0,29.77,SE,135,12.0,18.0,73,-99.99,,,-99.99,,2013-05-20 15:42:00,
2013-05-20 10:53:00,73.0,63.0,29.78,SSW,202,10.0,16.0,72,-99.99,,,-99.99,,2013-05-20 15:53:00,
2013-05-20 11:03:00,74.0,64.0,29.79,SSE,157,10.0,17.0,72,-99.99,,,-99.99,,2013-05-20 16:03:00,
2013-05-20 11:12:00,75.0,66.0,29.79,SSE,157,8.0,13.0,73,-99.99,,,-99.99,,2013-05-20 16:12:00,
2013-05-20 11:22:00,75.0,62.0,29.80,South,180,11.0,18.0,65,-99.99,,,-99.99,,2013-05-20 16:22:00,
2013-05-20 11:33:00,73.0,63.0,29.80,SSW,202,10.0,17.0,69,-99.99,,,-99.99,,2013-05-20 16:33:00,
2013-05-20 11:42:00,76.0,65.0,29.80,SSE,157,9.0,13.0,70,-99.99,,,-99.99,,2013-05-20 16:42:00,
2013-05-20 11:52:00,76.0,64.0,29.82,SSW,202,10.0,15.0,66,-99.99,,,-99.99,,2013-05-20 16:52:00,
2013-05-20 12:02:00,75.0,64.0,29.83,SSE,157,10.0,14.0,67,-99.99,,,-99.99,,2013-05-20 17:02:00,
2013-05-20 12:12:00,74.0,63.0,29.86,SW,225,10.0,16.0,69,-99.99,,,-99.99,,2013-05-20 17:12:00,
2013-05-20 12:22:00,73.0,63.0,29.88,West,270,9.0,17.0,70,-99.99,,,-99.99,,2013-05-20 17:22:00,
2013-05-20 12:33:00,71.0,63.0,29.88,WNW,292,16.0,22.0,74,-99.99,,,-99.99,,2013-05-20 17:33:00,
2013-05-20 12:45:00,72.0,66.0,29.87,NW,315,11.0,17.0,81,-99.99,,,-99.99,,2013-05-20 17:45:00,
2013-05-20 12:53:00,74.0,61.0,29.86,WNW,292,9.0,13.0,64,-99.99,,,-99.99,,2013-05-20 17:53:00,
2013-05-20 13:02:00,76.0,63.0,29.85,NW,315,7.0,11.0,65,-99.99,,,-99.99,,2013-05-20 18:02:00,
2013-05-20 13:12:00,77.0,61.0,29.84,NNE,22,3.0,7.0,58,-99.99,,,-99.99,,2013-05-20 18:12:00,
2013-05-20 13:23:00,79.0,62.0,29.82,SSE,157,1.0,4.0,56,-99.99,,,-99.99,,2013-05-20 18:23:00,
2013-05-20 13:32:00,79.0,62.0,29.82,SE,135,4.0,8.0,55,-99.99,,,-99.99,,2013-05-20 18:32:00,
2013-05-20 13:41:00,78.0,62.0,29.81,SE,135,7.0,10.0,57,-99.99,,,-99.99,,2013-05-20 18:41:00,
2013-05-20 13:55:00,79.0,62.0,29.81,SSE,157,8.0,13.0,56,-99.99,,,-99.99,,2013-05-20 18:55:00,
2013-05-20 14:04:00,79.0,63.0,29.81,SE,135,9.0,15.0,58,-99.99,,,-99.99,,2013-05-20 19:04:00,
2013-05-20 14:11:00,79.0,64.0,29.80,SSE,157,9.0,14.0,61,-99.99,,,-99.99,,2013-05-20 19:11:00,
2013-05-20 14:21:00,80.0,65.0,29.80,ESE,112,10.0,16.0,61,-99.99,,,-99.99,,2013-05-20 19:21:00,
2013-05-20 14:32:00,80.0,66.0,29.80,SSE,157,8.0,13.0,61,-99.99,,,-99.99,,2013-05-20 19:32:00,
2013-05-20 14:41:00,79.0,64.0,29.80,SE,135,9.0,13.0,61,-99.99,,,-99.99,,2013-05-20 19:41:00,
2013-05-20 14:52:00,80.0,66.0,29.80,SSW,202,9.0,16.0,63,-99.99,,,-99.99,,2013-05-20 19:52:00,
2013-05-20 15:01:00,79.0,66.0,29.80,South,180,8.0,14.0,65,-99.99,,,-99.99,,2013-05-20 20:01:00,
2013-05-20 15:12:00,79.0,65.0,29.80,South,180,9.0,14.0,63,-99.99,,,-99.99,,2013-05-20 20:12:00,
2013-05-20 15:21:00,78.0,67.0,29.79,SSE,157,6.0,11.0,69,-99.99,,,-99.99,,2013-05-20 20:21:00,
2013-05-20 15:32:00,76.0,66.0,29.79,South,180,8.0,12.0,71,-99.99,,,-99.99,,2013-05-20 20:32:00,
2013-05-20 15:42:00,76.0,66.0,29.78,SSW,202,9.0,13.0,73,-99.99,,,-99.99,,2013-05-20 20:42:00,
2013-05-20 15:51:00,76.0,66.0,29.78,SSE,157,9.0,15.0,73,-99.99,,,-99.99,,2013-05-20 20:51:00,
2013-05-20 16:01:00,77.0,67.0,29.76,SSE,157,6.0,11.0,72,-99.99,,,-99.99,,2013-05-20 21:01:00,
2013-05-20 16:11:00,77.0,68.0,29.75,SE,135,7.0,13.0,73,-99.99,,,-99.99,,2013-05-20 21:11:00,
2013-05-20 16:21:00,76.0,67.0,29.75,SSW,202,8.0,13.0,73,-99.99,,,-99.99,,2013-05-20 21:21:00,
2013-05-20 16:32:00,76.0,67.0,29.76,South,180,8.0,13.0,75,-99.99,,,-99.99,,2013-05-20 21:32:00,
2013-05-20 16:43:00,76.0,67.0,29.75,SW,225,7.0,12.0,75,-99.99,,,-99.99,,2013-05-20 21:43:00,
2013-05-20 16:53:00,75.0,68.0,29.75,South,180,5.0,8.0,77,-99.99,,,-99.99,,2013-05-20 21:53:00,
2013-05-20 17:02:00,75.0,67.0,29.75,South,180,5.0,9.0,78,-99.99,,,-99.99,,2013-05-20 22:02:00,
2013-05-20 17:12:00,75.0,67.0,29.75,South,180,5.0,8.0,78,-99.99,,,-99.99,,2013-05-20 22:12:00,
2013-05-20 17:23:00,75.0,68.0,29.74,SSW,202,4.0,7.0,77,-99.99,,,-99.99,,2013-05-20 22:23:00,
2013-05-20 17:33:00,75.0,67.0,29.73,South,180,6.0,11.0,77,-99.99,,,-99.99,,2013-05-20 22:33:00,
2013-05-20 17:42:00,75.0,68.0,29.71,SSE,157,6.0,9.0,79,-99.99,,,-99.99,,2013-05-20 22:42:00,
2013-05-20 17:52:00,75.0,69.0,29.71,South,180,3.0,5.0,80,-99.99,,,-99.99,,2013-05-20 22:52:00,
2013-05-20 18:02:00,75.0,68.0,29.72,SSW,202,6.0,11.0,80,-99.99,,,-99.99,,2013-05-20 23:02:00,
2013-05-20 18:12:00,74.0,68.0,29.71,SSE,157,5.0,7.0,83,-99.99,,,-99.99,,2013-05-20 23:12:00,
2013-05-20 18:22:00,73.0,68.0,29.71,South,180,5.0,8.0,84,-99.99,,,-99.99,,2013-05-20 23:22:00,
2013-05-20 18:32:00,73.0,69.0,29.70,SSE,157,4.0,7.0,86,-99.99,,,-99.99,,2013-05-20 23:32:00,
2013-05-20 18:42:00,73.0,69.0,29.69,South,180,5.0,7.0,87,-99.99,,,-99.99,,2013-05-20 23:42:00,
2013-05-20 18:52:00,73.0,69.0,29.69,SSE,157,4.0,7.0,88,-99.99,,,-99.99,,2013-05-20 23:52:00,
2013-05-20 19:01:00,72.0,70.0,29.73,WSW,247,5.0,8.0,92,-99.99,,,-99.99,,2013-05-21 00:01:00,
2013-05-20 19:11:00,67.0,63.0,29.75,WSW,247,9.0,28.0,86,-99.99,,,-99.99,,2013-05-21 00:11:00,
2013-05-20 19:21:00,67.0,65.0,29.73,WSW,247,9.0,17.0,95,-99.99,,,-99.99,,2013-05-21 00:21:00,
2013-05-20 19:31:00,65.0,64.0,29.74,WSW,247,4.0,8.0,96,-99.99,,,-99.99,,2013-05-21 00:31:00,
2013-05-20 19:41:00,65.0,64.0,29.73,SE,135,3.0,6.0,97,-99.99,,,-99.99,,2013-05-21 00:41:00,
2013-05-20 19:52:00,66.0,65.0,29.73,SE,135,0.0,-999.0,97,-99.99,,,-99.99,,2013-05-21 00:52:00,
2013-05-20 20:01:00,66.0,65.0,29.73,East,90,4.0,11.0,98,-99.99,,,-99.99,,2013-05-21 01:01:00,
2013-05-20 20:11:00,65.0,63.0,29.73,NNW,337,7.0,13.0,94,-99.99,,,-99.99,,2013-05-21 01:11:00,
2013-05-20 20:21:00,65.0,63.0,29.75,NW,315,10.0,17.0,92,-99.99,,,-99.99,,2013-05-21 01:21:00,
2013-05-20 20:32:00,64.0,62.0,29.73,East,90,11.0,15.0,93,-99.99,,,-99.99,,2013-05-21 01:32:00,
2013-05-20 20:42:00,65.0,62.0,29.74,NW,315,12.0,17.0,93,-99.99,,,-99.99,,2013-05-21 01:42:00,
2013-05-20 20:52:00,63.0,62.0,29.77,WSW,247,12.0,21.0,95,-99.99,,,-99.99,,2013-05-21 01:52:00,
2013-05-20 21:02:00,63.0,62.0,29.78,West,270,13.0,22.0,97,-99.99,,,-99.99,,2013-05-21 02:02:00,
2013-05-20 21:11:00,63.0,62.0,29.75,SSW,202,14.0,21.0,97,-99.99,,,-99.99,,2013-05-21 02:11:00,
2013-05-20 21:21:00,63.0,61.0,29.70,SW,225,7.0,11.0,96,-99.99,,,-99.99,,2013-05-21 02:21:00,
2013-05-20 21:32:00,62.0,61.0,29.68,South,180,3.0,6.0,96,-99.99,,,-99.99,,2013-05-21 02:32:00,
2013-05-20 21:41:00,62.0,61.0,29.70,South,180,6.0,9.0,97,-99.99,,,-99.99,,2013-05-21 02:41:00,
2013-05-20 21:52:00,62.0,61.0,29.71,South,180,5.0,9.0,97,-99.99,,,-99.99,,2013-05-21 02:52:00,
2013-05-20 22:02:00,62.0,61.0,29.72,South,180,7.0,13.0,98,-99.99,,,-99.99,,2013-05-21 03:02:00,
2013-05-20 22:11:00,62.0,61.0,29.72,South,180,8.0,14.0,98,-99.99,,,-99.99,,2013-05-21 03:11:00,
2013-05-20 22:21:00,62.0,61.0,29.73,SSE,157,8.0,13.0,97,-99.99,,,-99.99,,2013-05-21 03:21:00,
2013-05-20 22:33:00,62.0,61.0,29.73,SSE,157,10.0,16.0,97,-99.99,,,-99.99,,2013-05-21 03:33:00,
2013-05-20 22:43:00,63.0,62.0,29.71,South,180,10.0,18.0,97,-99.99,,,-99.99,,2013-05-21 03:43:00,
2013-05-20 22:53:00,63.0,62.0,29.71,SSW,202,8.0,13.0,96,-99.99,,,-99.99,,2013-05-21 03:53:00,
2013-05-20 23:03:00,63.0,62.0,29.72,South,180,6.0,13.0,95,-99.99,,,-99.99,,2013-05-21 04:03:00,
2013-05-20 23:13:00,63.0,61.0,29.72,South,180,7.0,11.0,95,-99.99,,,-99.99,,2013-05-21 04:13:00,
2013-05-20 23:23:00,63.0,62.0,29.72,SSW,202,9.0,14.0,96,-99.99,,,-99.99,,2013-05-21 04:23:00,
2013-05-20 23:33:00,63.0,61.0,29.72,SSE,157,10.0,16.0,95,-99.99,,,-99.99,,2013-05-21 04:33:00,
2013-05-20 23:42:00,63.0,61.0,29.72,SSW,202,9.0,16.0,95,-99.99,,,-99.99,,2013-05-21 04:42:00,
2013-05-20 23:52:00,63.0,61.0,29.72,SSW,202,9.0,16.0,95,-99.99,,,-99.99,,2013-05-21 04:52:00,